• In Czech Republic
  • List of Countries
  • For 7 days
  • Water Temperature
  • Satellite Maps
  • Weather Map
  • Weather Widgets
  • user-avatar
    Login

    Hourly Weather Sidi Bu-l-Abbas

    Today, 24 April, Tuesday

    Time Temperature Precipitation Wind Pressure Humidity
    00:00 +19°C° 0 mm 3 mps 716 mmHg 62%
    01:00 +18°C° 0 mm 3 mps 716 mmHg 64%
    02:00 +17°C° 0 mm 2 mps 716 mmHg 66%
    03:00 +17°C° 0 mm 2 mps 716 mmHg 69%
    04:00 +17°C° 0 mm 2 mps 716 mmHg 68%
    05:00 +17°C° 0 mm 2 mps 716 mmHg 68%
    06:00 +18°C° 0 mm 1 mps 716 mmHg 68%
    07:00 +19°C° 0 mm 2 mps 717 mmHg 58%
    08:00 +21°C° 0 mm 2 mps 717 mmHg 49%
    09:00 +25°C° 0 mm 2 mps 717 mmHg 39%
    10:00 +26°C° 0 mm 3 mps 717 mmHg 38%
    11:00 +27°C° 0 mm 3 mps 717 mmHg 36%
    12:00 +28°C° 0 mm 4 mps 717 mmHg 34%
    13:00 +27°C° 0.1 mm 3 mps 717 mmHg 41%
    14:00 +26°C° 0.1 mm 3 mps 716 mmHg 48%
    15:00 +24°C° 0.1 mm 3 mps 715 mmHg 54%
    16:00 +22°C° 0.5 mm 3 mps 715 mmHg 59%
    17:00 +22°C° 0.5 mm 3 mps 715 mmHg 63%
    18:00 +21°C° 0.5 mm 3 mps 715 mmHg 67%
    19:00 +20°C° 0 mm 3 mps 716 mmHg 71%
    20:00 +19°C° 0 mm 2 mps 716 mmHg 76%
    21:00 +18°C° 0 mm 2 mps 716 mmHg 80%
    22:00 +17°C° 0 mm 2 mps 716 mmHg 82%
    23:00 +17°C° 0 mm 2 mps 716 mmHg 84%

    Tomorrow, 25 April, Wednesday

    Time Temperature Precipitation Wind Pressure Humidity
    00:00 +17°C° 0 mm 2 mps 716 mmHg 86%
    01:00 +16°C° 0.5 mm 2 mps 716 mmHg 87%
    02:00 +16°C° 0.5 mm 2 mps 715 mmHg 88%
    03:00 +16°C° 0.5 mm 2 mps 715 mmHg 89%
    04:00 +16°C° 0.2 mm 2 mps 716 mmHg 89%
    05:00 +16°C° 0.2 mm 2 mps 716 mmHg 90%
    06:00 +16°C° 0.2 mm 3 mps 716 mmHg 90%
    07:00 +16°C° 0.1 mm 3 mps 716 mmHg 87%
    08:00 +17°C° 0.1 mm 4 mps 717 mmHg 84%
    09:00 +17°C° 0.1 mm 4 mps 717 mmHg 81%
    10:00 +17°C° 0.1 mm 4 mps 717 mmHg 80%
    11:00 +17°C° 0.1 mm 5 mps 718 mmHg 78%
    12:00 +17°C° 0.1 mm 5 mps 718 mmHg 76%
    13:00 +18°C° 0.1 mm 4 mps 717 mmHg 75%
    14:00 +18°C° 0.1 mm 4 mps 717 mmHg 73%
    15:00 +18°C° 0.1 mm 4 mps 717 mmHg 72%
    16:00 +18°C° 0 mm 4 mps 717 mmHg 73%
    17:00 +18°C° 0 mm 4 mps 717 mmHg 75%
    18:00 +17°C° 0 mm 4 mps 717 mmHg 77%
    19:00 +17°C° 0.1 mm 3 mps 718 mmHg 79%
    20:00 +16°C° 0.1 mm 3 mps 718 mmHg 82%
    21:00 +16°C° 0.1 mm 2 mps 719 mmHg 84%
    22:00 +15°C° 0 mm 2 mps 718 mmHg 86%
    23:00 +15°C° 0 mm 1 mps 718 mmHg 87%

    Day after tomorrow, 26 April, Thursday

    Time Temperature Precipitation Wind Pressure Humidity
    00:00 +14°C° 0 mm 1 mps 718 mmHg 88%
    01:00 +14°C° 0 mm 1 mps 718 mmHg 89%
    02:00 +13°C° 0 mm 1 mps 717 mmHg 89%
    03:00 +13°C° 0 mm 1 mps 717 mmHg 89%
    04:00 +13°C° 0 mm 1 mps 717 mmHg 89%
    05:00 +14°C° 0 mm 1 mps 717 mmHg 88%
    06:00 +14°C° 0 mm 1 mps 717 mmHg 87%
    07:00 +15°C° 0.1 mm 2 mps 717 mmHg 83%
    08:00 +16°C° 0.1 mm 2 mps 718 mmHg 80%
    09:00 +17°C° 0.1 mm 3 mps 718 mmHg 76%
    10:00 +17°C° 0.2 mm 3 mps 719 mmHg 76%
    11:00 +17°C° 0.2 mm 4 mps 719 mmHg 76%
    12:00 +17°C° 0.2 mm 5 mps 719 mmHg 75%
    13:00 +16°C° 0.2 mm 5 mps 719 mmHg 78%
    14:00 +16°C° 0.2 mm 5 mps 718 mmHg 81%
    15:00 +15°C° 0.2 mm 5 mps 718 mmHg 84%
    16:00 +15°C° 0.3 mm 5 mps 718 mmHg 85%
    17:00 +15°C° 0.3 mm 4 mps 718 mmHg 87%
    18:00 +14°C° 0.3 mm 4 mps 718 mmHg 89%
    19:00 +14°C° 0.3 mm 4 mps 719 mmHg 90%
    20:00 +14°C° 0.3 mm 3 mps 719 mmHg 91%
    21:00 +14°C° 0.3 mm 3 mps 720 mmHg 92%
    22:00 +14°C° 0.1 mm 3 mps 720 mmHg 92%
    23:00 +13°C° 0.1 mm 3 mps 720 mmHg 92%

    27 April, Friday

    Time Temperature Precipitation Wind Pressure Humidity
    00:00 +14°C° 0.1 mm 2 mps 719 mmHg 93%
    01:00 +14°C° 0.1 mm 2 mps 719 mmHg 93%
    02:00 +14°C° 0.1 mm 2 mps 719 mmHg 93%
    03:00 +13°C° 0.1 mm 2 mps 718 mmHg 94%
    04:00 +13°C° 0.1 mm 2 mps 718 mmHg 93%
    05:00 +13°C° 0.1 mm 2 mps 718 mmHg 93%
    06:00 +14°C° 0.1 mm 2 mps 718 mmHg 93%
    07:00 +15°C° 0.1 mm 2 mps 718 mmHg 87%
    08:00 +16°C° 0.1 mm 2 mps 719 mmHg 81%
    09:00 +17°C° 0.1 mm 2 mps 719 mmHg 75%
    10:00 +18°C° 0 mm 2 mps 719 mmHg 69%
    11:00 +19°C° 0 mm 3 mps 719 mmHg 64%
    12:00 +20°C° 0 mm 3 mps 719 mmHg 58%
    13:00 +20°C° 0 mm 3 mps 719 mmHg 56%
    14:00 +21°C° 0 mm 3 mps 718 mmHg 54%
    15:00 +21°C° 0 mm 3 mps 718 mmHg 52%
    16:00 +21°C° 0 mm 3 mps 718 mmHg 54%
    17:00 +21°C° 0 mm 2 mps 718 mmHg 55%
    18:00 +20°C° 0 mm 2 mps 718 mmHg 56%
    19:00 +20°C° 0 mm 1 mps 718 mmHg 62%
    20:00 +19°C° 0 mm 1 mps 718 mmHg 67%
    21:00 +16°C° 0 mm 1 mps 718 mmHg 73%
    22:00 +16°C° 0 mm 1 mps 718 mmHg 72%
    23:00 +16°C° 0 mm 1 mps 718 mmHg 71%

    28 April, Saturday

    Time Temperature Precipitation Wind Pressure Humidity
    00:00 +16°C° 0 mm 1 mps 718 mmHg 70%
    01:00 +16°C° 0 mm 1 mps 717 mmHg 70%
    02:00 +15°C° 0 mm 1 mps 717 mmHg 70%
    03:00 +15°C° 0 mm 1 mps 717 mmHg 71%
    04:00 +15°C° 0 mm 1 mps 717 mmHg 70%
    05:00 +16°C° 0 mm 1 mps 717 mmHg 70%
    06:00 +16°C° 0 mm 2 mps 717 mmHg 69%
    07:00 +18°C° 0 mm 2 mps 717 mmHg 63%
    08:00 +20°C° 0 mm 3 mps 717 mmHg 56%
    09:00 +21°C° 0 mm 3 mps 718 mmHg 50%
    10:00 +22°C° 0 mm 4 mps 718 mmHg 49%
    11:00 +23°C° 0 mm 5 mps 718 mmHg 48%
    12:00 +23°C° 0 mm 6 mps 718 mmHg 46%
    13:00 +23°C° 0.3 mm 7 mps 717 mmHg 49%
    14:00 +22°C° 0.3 mm 7 mps 717 mmHg 52%
    15:00 +21°C° 0.3 mm 7 mps 717 mmHg 55%
    16:00 +20°C° 0.5 mm 7 mps 717 mmHg 60%
    17:00 +17°C° 0.5 mm 6 mps 717 mmHg 64%
    18:00 +16°C° 0.5 mm 6 mps 717 mmHg 69%
    19:00 +15°C° 0.2 mm 5 mps 718 mmHg 71%
    20:00 +15°C° 0.2 mm 4 mps 718 mmHg 73%
    21:00 +14°C° 0.2 mm 4 mps 719 mmHg 75%
    22:00 +14°C° 0 mm 3 mps 719 mmHg 77%
    23:00 +13°C° 0 mm 3 mps 719 mmHg 80%

    29 April, Sunday

    Time Temperature Precipitation Wind Pressure Humidity
    00:00 +14°C° 0 mm 2 mps 718 mmHg 82%
    01:00 +13°C° 0 mm 2 mps 718 mmHg 84%
    02:00 +13°C° 0 mm 2 mps 718 mmHg 85%
    03:00 +13°C° 0 mm 2 mps 718 mmHg 87%
    04:00 +12°C° 0 mm 3 mps 718 mmHg 85%
    05:00 +12°C° 0 mm 3 mps 718 mmHg 83%
    06:00 +12°C° 0 mm 3 mps 718 mmHg 82%
    07:00 +13°C° 0 mm 4 mps 719 mmHg 78%
    08:00 +13°C° 0 mm 4 mps 719 mmHg 73%
    09:00 +14°C° 0 mm 4 mps 719 mmHg 69%
    10:00 +14°C° 0 mm 5 mps 720 mmHg 67%
    11:00 +15°C° 0 mm 5 mps 720 mmHg 64%
    12:00 +15°C° 0 mm 5 mps 720 mmHg 61%
    13:00 +15°C° 0 mm 5 mps 720 mmHg 62%
    14:00 +15°C° 0 mm 6 mps 719 mmHg 62%
    15:00 +15°C° 0 mm 6 mps 719 mmHg 62%
    16:00 +14°C° 0 mm 6 mps 719 mmHg 64%
    17:00 +14°C° 0 mm 6 mps 720 mmHg 65%
    18:00 +13°C° 0 mm 6 mps 720 mmHg 66%
    19:00 +13°C° 0 mm 5 mps 721 mmHg 68%
    20:00 +12°C° 0 mm 4 mps 721 mmHg 70%
    21:00 +11°C° 0 mm 3 mps 722 mmHg 73%
    22:00 +11°C° 0 mm 3 mps 722 mmHg 74%
    23:00 +12°C° 0 mm 2 mps 721 mmHg 75%
    Show more